,,PressureMeas_1m,,PRMeasQMR101_1,,RHStat155_1m_1,,SRMeasQMS101R_1m,,TAStat155_1m_1,,GenWind_1,,GenWind_1,
2019-08-18, 07:00:06,VALID,917.819,VALID,0.0,VALID,88.445,VALID,39.452,VALID,21.488,INVALID,360.0,VALID,0.0,
2019-08-18, 07:01:06,VALID,917.837,VALID,0.0,VALID,88.469,VALID,40.894,VALID,21.475,INVALID,360.0,VALID,0.0,
2019-08-18, 07:02:07,VALID,917.845,VALID,0.0,VALID,88.162,VALID,42.66,VALID,21.52,INVALID,360.0,VALID,0.0,
2019-08-18, 07:03:07,VALID,917.875,VALID,0.0,VALID,88.038,VALID,44.452,VALID,21.586,INVALID,360.0,VALID,0.0,
2019-08-18, 07:04:07,VALID,917.901,VALID,0.0,VALID,87.88,VALID,46.501,VALID,21.573,INVALID,360.0,VALID,0.0,
2019-08-18, 07:05:07,VALID,917.939,VALID,0.0,VALID,87.845,VALID,49.572,VALID,21.576,INVALID,360.0,VALID,0.0,
2019-08-18, 07:06:07,VALID,917.941,VALID,0.0,VALID,87.75,VALID,53.194,VALID,21.608,INVALID,360.0,VALID,0.0,
2019-08-18, 07:07:07,VALID,917.95,VALID,0.0,VALID,86.781,VALID,50.867,VALID,21.7,INVALID,360.0,VALID,0.0,
2019-08-18, 07:08:07,VALID,917.986,VALID,0.0,VALID,86.096,VALID,51.627,VALID,21.826,INVALID,360.0,VALID,0.0,
2019-08-18, 07:09:07,VALID,917.948,VALID,0.0,VALID,84.907,VALID,52.491,VALID,21.991,INVALID,360.0,VALID,0.0,
2019-08-18, 07:10:07,VALID,917.996,VALID,0.0,VALID,84.727,VALID,53.849,VALID,22.058,INVALID,360.0,VALID,0.0,
2019-08-18, 07:11:07,VALID,917.995,VALID,0.0,VALID,84.329,VALID,55.197,VALID,22.051,INVALID,360.0,VALID,0.0,
2019-08-18, 07:12:07,VALID,918.051,VALID,0.0,VALID,84.603,VALID,56.777,VALID,22.077,INVALID,360.0,VALID,0.0,
2019-08-18, 07:13:07,VALID,918.033,VALID,0.0,VALID,84.884,VALID,73.057,VALID,22.049,INVALID,360.0,VALID,0.0,
2019-08-18, 07:14:07,VALID,918.05,VALID,0.0,VALID,85.026,VALID,82.577,VALID,22.05,INVALID,360.0,VALID,0.0,
2019-08-18, 07:15:07,VALID,918.053,VALID,0.0,VALID,85.042,VALID,83.577,VALID,22.076,INVALID,360.0,VALID,0.0,
2019-08-18, 07:16:07,VALID,918.036,VALID,0.0,VALID,84.158,VALID,74.779,VALID,22.163,INVALID,360.0,VALID,0.0,
2019-08-18, 07:17:07,VALID,918.046,VALID,0.0,VALID,83.794,VALID,68.459,VALID,22.268,INVALID,360.0,VALID,0.0,
2019-08-18, 07:18:07,VALID,918.03,VALID,0.0,VALID,83.763,VALID,92.285,VALID,22.281,INVALID,360.0,VALID,0.0,
2019-08-18, 07:19:07,VALID,918.02,VALID,0.0,VALID,83.611,VALID,78.844,VALID,22.292,INVALID,360.0,VALID,0.0,
2019-08-18, 07:20:07,VALID,918.04,VALID,0.0,VALID,84.173,VALID,72.479,VALID,22.283,INVALID,360.0,VALID,0.0,
2019-08-18, 07:21:07,VALID,918.036,VALID,0.0,VALID,84.856,VALID,80.764,VALID,22.244,INVALID,360.0,VALID,0.0,
2019-08-18, 07:22:07,VALID,918.029,VALID,0.0,VALID,84.313,VALID,108.547,VALID,22.238,INVALID,360.0,VALID,0.0,
2019-08-18, 07:23:07,VALID,918.047,VALID,0.0,VALID,84.613,VALID,121.123,VALID,22.295,INVALID,360.0,VALID,0.0,
2019-08-18, 07:24:07,VALID,918.092,VALID,0.0,VALID,84.497,VALID,123.006,VALID,22.334,INVALID,360.0,VALID,0.0,
2019-08-18, 07:25:07,VALID,918.113,VALID,0.0,VALID,83.567,VALID,125.31,VALID,22.414,INVALID,360.0,VALID,0.0,
2019-08-18, 07:26:07,VALID,918.147,VALID,0.0,VALID,83.591,VALID,127.287,VALID,22.462,INVALID,360.0,VALID,0.0,
2019-08-18, 07:27:07,VALID,918.129,VALID,0.0,VALID,83.157,VALID,132.609,VALID,22.479,INVALID,360.0,VALID,0.0,
2019-08-18, 07:28:07,VALID,918.137,VALID,0.0,VALID,82.485,VALID,133.95,VALID,22.6,INVALID,360.0,VALID,0.0,
2019-08-18, 07:29:07,VALID,918.113,VALID,0.0,VALID,81.702,VALID,135.002,VALID,22.7,INVALID,360.0,VALID,0.0,
2019-08-18, 07:30:07,VALID,918.158,VALID,0.0,VALID,81.25,VALID,142.746,VALID,22.781,INVALID,360.0,VALID,0.0,
2019-08-18, 07:31:07,VALID,918.176,VALID,0.0,VALID,80.19,VALID,145.506,VALID,22.888,INVALID,360.0,VALID,0.0,
2019-08-18, 07:32:07,VALID,918.164,VALID,0.0,VALID,80.928,VALID,145.519,VALID,22.894,INVALID,360.0,VALID,0.0,
2019-08-18, 07:33:07,VALID,918.186,VALID,0.0,VALID,81.614,VALID,148.94,VALID,22.849,INVALID,360.0,VALID,0.0,
2019-08-18, 07:34:07,VALID,918.219,VALID,0.0,VALID,81.533,VALID,152.242,VALID,22.823,INVALID,360.0,VALID,0.0,
2019-08-18, 07:35:07,VALID,918.206,VALID,0.0,VALID,80.982,VALID,154.592,VALID,22.819,INVALID,360.0,VALID,0.0,
2019-08-18, 07:36:07,VALID,918.209,VALID,0.0,VALID,80.388,VALID,158.672,VALID,22.865,INVALID,360.0,VALID,0.0,
2019-08-18, 07:37:07,VALID,918.203,VALID,0.0,VALID,80.484,VALID,164.783,VALID,22.982,INVALID,360.0,VALID,0.0,
2019-08-18, 07:38:07,VALID,918.231,VALID,0.0,VALID,80.541,VALID,165.729,VALID,23.044,INVALID,360.0,VALID,0.0,
2019-08-18, 07:39:07,VALID,918.231,VALID,0.0,VALID,81.041,VALID,166.507,VALID,23.119,INVALID,360.0,VALID,0.0,
2019-08-18, 07:40:07,VALID,918.263,VALID,0.0,VALID,80.926,VALID,172.542,VALID,23.191,INVALID,360.0,VALID,0.0,
2019-08-18, 07:41:07,VALID,918.307,VALID,0.0,VALID,80.34,VALID,181.828,VALID,23.245,INVALID,360.0,VALID,0.0,
2019-08-18, 07:42:07,VALID,918.322,VALID,0.0,VALID,79.635,VALID,184.171,VALID,23.259,INVALID,360.0,VALID,0.0,
2019-08-18, 07:43:07,VALID,918.353,VALID,0.0,VALID,79.072,VALID,184.838,VALID,23.339,INVALID,360.0,VALID,0.0,
2019-08-18, 07:44:07,VALID,918.383,VALID,0.0,VALID,79.401,VALID,156.085,VALID,23.378,INVALID,360.0,VALID,0.0,
2019-08-18, 07:45:07,VALID,918.423,VALID,0.0,VALID,80.888,VALID,186.785,VALID,23.352,INVALID,360.0,VALID,0.0,
2019-08-18, 07:46:07,VALID,918.411,VALID,0.0,VALID,79.719,VALID,198.314,VALID,23.408,INVALID,360.0,VALID,0.0,
2019-08-18, 07:47:07,VALID,918.448,VALID,0.0,VALID,78.983,VALID,213.745,VALID,23.469,INVALID,360.0,VALID,0.0,
2019-08-18, 07:48:07,VALID,918.466,VALID,0.0,VALID,79.098,VALID,223.786,VALID,23.536,INVALID,360.0,VALID,0.0,
2019-08-18, 07:49:07,VALID,918.499,VALID,0.0,VALID,77.49,VALID,226.436,VALID,23.581,INVALID,360.0,VALID,0.0,
2019-08-18, 07:50:07,VALID,918.517,VALID,0.0,VALID,77.175,VALID,228.093,VALID,23.65,INVALID,360.0,VALID,0.0,
2019-08-18, 07:51:07,VALID,918.542,VALID,0.0,VALID,77.446,VALID,193.356,VALID,23.716,INVALID,360.0,VALID,0.0,
2019-08-18, 07:52:07,VALID,918.552,VALID,0.0,VALID,76.803,VALID,191.741,VALID,23.683,INVALID,360.0,VALID,0.0,
2019-08-18, 07:53:07,VALID,918.516,VALID,0.0,VALID,76.246,VALID,239.197,VALID,23.637,INVALID,360.0,VALID,0.0,
2019-08-18, 07:54:07,VALID,918.549,VALID,0.0,VALID,77.399,VALID,237.483,VALID,23.686,INVALID,360.0,VALID,0.0,
2019-08-18, 07:55:07,VALID,918.528,VALID,0.0,VALID,78.234,VALID,241.208,VALID,23.766,INVALID,360.0,VALID,0.0,
2019-08-18, 07:56:07,VALID,918.529,VALID,0.0,VALID,78.806,VALID,243.158,VALID,23.747,INVALID,360.0,VALID,0.0,
2019-08-18, 07:57:07,VALID,918.547,VALID,0.0,VALID,78.307,VALID,244.612,VALID,23.586,INVALID,360.0,VALID,0.0,
2019-08-18, 07:58:07,VALID,918.56,VALID,0.0,VALID,77.709,VALID,246.62,VALID,23.64,INVALID,360.0,VALID,0.0,
2019-08-18, 07:59:07,VALID,918.608,VALID,0.0,VALID,77.886,VALID,250.074,VALID,23.766,INVALID,360.0,VALID,0.0,
2019-08-18, 08:00:07,VALID,918.566,VALID,0.0,VALID,77.46,VALID,255.944,VALID,23.778,INVALID,360.0,VALID,0.0,
2019-08-18, 08:01:07,VALID,918.627,VALID,0.0,VALID,77.025,VALID,249.705,VALID,23.778,INVALID,360.0,VALID,0.0,
2019-08-18, 08:02:07,VALID,918.657,VALID,0.0,VALID,77.406,VALID,264.769,VALID,23.729,INVALID,360.0,VALID,0.0,
2019-08-18, 08:03:07,VALID,918.647,VALID,0.0,VALID,78.649,VALID,267.706,VALID,23.59,INVALID,360.0,VALID,0.0,
2019-08-18, 08:04:07,VALID,918.674,VALID,0.0,VALID,78.689,VALID,257.685,VALID,23.571,INVALID,360.0,VALID,0.0,
2019-08-18, 08:05:07,VALID,918.657,VALID,0.0,VALID,76.708,VALID,275.608,VALID,23.567,INVALID,360.0,VALID,0.0,
2019-08-18, 08:06:07,VALID,918.68,VALID,0.0,VALID,78.218,VALID,275.953,VALID,23.624,INVALID,360.0,VALID,0.0,
2019-08-18, 08:07:07,VALID,918.672,VALID,0.0,VALID,76.955,VALID,281.682,VALID,23.657,INVALID,360.0,VALID,0.0,
2019-08-18, 08:08:07,VALID,918.665,VALID,0.0,VALID,77.264,VALID,293.622,VALID,23.748,INVALID,360.0,VALID,0.0,
2019-08-18, 08:09:07,VALID,918.683,VALID,0.0,VALID,75.95,VALID,279.366,VALID,23.762,INVALID,360.0,VALID,0.0,
2019-08-18, 08:10:07,VALID,918.682,VALID,0.0,VALID,78.718,VALID,278.615,VALID,23.75,INVALID,360.0,VALID,0.0,
2019-08-18, 08:11:07,VALID,918.674,VALID,0.0,VALID,78.199,VALID,288.176,VALID,23.809,INVALID,360.0,VALID,0.0,
2019-08-18, 08:12:07,VALID,918.669,VALID,0.0,VALID,77.652,VALID,295.672,VALID,23.943,INVALID,360.0,VALID,0.0,
2019-08-18, 08:13:07,VALID,918.67,VALID,0.0,VALID,77.286,VALID,225.898,VALID,23.96,INVALID,360.0,VALID,0.0,
2019-08-18, 08:14:07,VALID,918.663,VALID,0.0,VALID,78.8,VALID,262.463,VALID,23.884,INVALID,360.0,VALID,0.0,
2019-08-18, 08:15:07,VALID,918.644,VALID,0.0,VALID,77.973,VALID,307.963,VALID,23.871,INVALID,360.0,VALID,0.0,
2019-08-18, 08:16:07,VALID,918.626,VALID,0.0,VALID,77.171,VALID,316.314,VALID,23.94,INVALID,360.0,VALID,0.0,
2019-08-18, 08:17:07,VALID,918.624,VALID,0.0,VALID,76.639,VALID,314.768,VALID,24.007,INVALID,360.0,VALID,0.0,
2019-08-18, 08:18:07,VALID,918.631,VALID,0.0,VALID,76.13,VALID,321.584,VALID,23.949,INVALID,360.0,VALID,0.0,
2019-08-18, 08:19:07,VALID,918.633,VALID,0.0,VALID,76.581,VALID,328.344,VALID,23.921,INVALID,360.0,VALID,0.0,
2019-08-18, 08:20:07,VALID,918.626,VALID,0.0,VALID,76.401,VALID,325.667,VALID,23.937,INVALID,360.0,VALID,0.0,
2019-08-18, 08:21:07,VALID,918.618,VALID,0.0,VALID,76.883,VALID,324.596,VALID,24.051,INVALID,360.0,VALID,0.0,
2019-08-18, 08:22:07,VALID,918.651,VALID,0.0,VALID,76.97,VALID,335.557,VALID,24.176,INVALID,360.0,VALID,0.0,
2019-08-18, 08:23:07,VALID,918.691,VALID,0.0,VALID,77.11,VALID,336.811,VALID,24.129,INVALID,360.0,VALID,0.0,
2019-08-18, 08:24:07,VALID,918.686,VALID,0.0,VALID,78.102,VALID,337.015,VALID,24.063,INVALID,360.0,VALID,0.0,
2019-08-18, 08:25:07,VALID,918.715,VALID,0.0,VALID,77.812,VALID,348.638,VALID,24.114,INVALID,360.0,VALID,0.0,
2019-08-18, 08:26:07,VALID,918.724,VALID,0.0,VALID,76.881,VALID,349.467,VALID,24.02,INVALID,360.0,VALID,0.0,
2019-08-18, 08:27:07,VALID,918.722,VALID,0.0,VALID,76.876,VALID,338.724,VALID,23.932,INVALID,360.0,VALID,0.0,
2019-08-18, 08:28:07,VALID,918.726,VALID,0.0,VALID,77.486,VALID,342.721,VALID,23.931,INVALID,360.0,VALID,0.0,
2019-08-18, 08:29:07,VALID,918.708,VALID,0.0,VALID,76.502,VALID,352.267,VALID,23.926,INVALID,360.0,VALID,0.0,
2019-08-18, 08:30:07,VALID,918.726,VALID,0.0,VALID,76.945,VALID,353.739,VALID,23.986,INVALID,360.0,VALID,0.0,
2019-08-18, 08:31:07,VALID,918.701,VALID,0.0,VALID,76.979,VALID,357.723,VALID,24.056,INVALID,360.0,VALID,0.0,
2019-08-18, 08:32:07,VALID,918.683,VALID,0.0,VALID,77.767,VALID,367.726,VALID,24.053,INVALID,360.0,VALID,0.0,
2019-08-18, 08:33:07,VALID,918.72,VALID,0.0,VALID,77.465,VALID,375.482,VALID,24.109,INVALID,360.0,VALID,0.0,
2019-08-18, 08:34:07,VALID,918.719,VALID,0.0,VALID,76.419,VALID,381.43,VALID,24.147,INVALID,360.0,VALID,0.0,
2019-08-18, 08:35:07,VALID,918.683,VALID,0.0,VALID,75.731,VALID,352.983,VALID,24.185,INVALID,360.0,VALID,0.0,
2019-08-18, 08:36:07,VALID,918.695,VALID,0.0,VALID,77.014,VALID,366.573,VALID,24.349,INVALID,360.0,VALID,0.0,
2019-08-18, 08:37:07,VALID,918.741,VALID,0.0,VALID,76.373,VALID,392.303,VALID,24.35,INVALID,360.0,VALID,0.0,
2019-08-18, 08:38:07,VALID,918.762,VALID,0.0,VALID,77.528,VALID,397.361,VALID,24.294,INVALID,360.0,VALID,0.0,
2019-08-18, 08:39:07,VALID,918.764,VALID,0.0,VALID,77.249,VALID,390.132,VALID,24.4,INVALID,360.0,VALID,0.0,
2019-08-18, 08:40:07,VALID,918.788,VALID,0.0,VALID,75.856,VALID,395.813,VALID,24.47,INVALID,360.0,VALID,0.0,
2019-08-18, 08:41:07,VALID,918.773,VALID,0.0,VALID,74.962,VALID,400.386,VALID,24.369,INVALID,360.0,VALID,0.0,
2019-08-18, 08:42:07,VALID,918.776,VALID,0.0,VALID,77.136,VALID,407.065,VALID,24.335,INVALID,360.0,VALID,0.0,
2019-08-18, 08:43:07,VALID,918.796,VALID,0.0,VALID,77.583,VALID,404.251,VALID,24.444,INVALID,360.0,VALID,0.0,
2019-08-18, 08:44:07,VALID,918.821,VALID,0.0,VALID,75.779,VALID,394.786,VALID,24.417,INVALID,360.0,VALID,0.0,
2019-08-18, 08:45:07,VALID,918.8,VALID,0.0,VALID,75.468,VALID,416.944,VALID,24.304,INVALID,360.0,VALID,0.0,
2019-08-18, 08:46:07,VALID,918.816,VALID,0.0,VALID,74.596,VALID,419.329,VALID,24.236,INVALID,360.0,VALID,0.0,
2019-08-18, 08:47:07,VALID,918.815,VALID,0.0,VALID,76.194,VALID,428.342,VALID,24.22,INVALID,360.0,VALID,0.0,
2019-08-18, 08:48:07,VALID,918.789,VALID,0.0,VALID,76.912,VALID,438.617,VALID,24.236,INVALID,360.0,VALID,0.0,
2019-08-18, 08:49:07,VALID,918.776,VALID,0.0,VALID,75.264,VALID,443.539,VALID,24.371,INVALID,360.0,VALID,0.0,
2019-08-18, 08:50:07,VALID,918.817,VALID,0.0,VALID,74.679,VALID,424.803,VALID,24.496,INVALID,360.0,VALID,0.0,
2019-08-18, 08:51:07,VALID,918.822,VALID,0.0,VALID,75.766,VALID,449.187,VALID,24.439,INVALID,360.0,VALID,0.0,
2019-08-18, 08:52:07,VALID,918.846,VALID,0.0,VALID,76.362,VALID,462.855,VALID,24.465,INVALID,360.0,VALID,0.0,
2019-08-18, 08:53:07,VALID,918.867,VALID,0.0,VALID,74.355,VALID,460.698,VALID,24.537,INVALID,360.0,VALID,0.0,
2019-08-18, 08:54:07,VALID,918.782,VALID,0.0,VALID,73.137,VALID,454.957,VALID,24.476,INVALID,360.0,VALID,0.0,
2019-08-18, 08:55:07,VALID,918.854,VALID,0.0,VALID,72.264,VALID,463.387,VALID,24.296,INVALID,360.0,VALID,0.0,
2019-08-18, 08:56:07,VALID,918.893,VALID,0.0,VALID,74.746,VALID,225.588,VALID,24.38,INVALID,360.0,VALID,0.0,
2019-08-18, 08:57:07,VALID,918.921,VALID,0.0,VALID,75.143,VALID,421.013,VALID,24.588,INVALID,360.0,VALID,0.0,
2019-08-18, 08:58:07,VALID,918.912,VALID,0.0,VALID,72.355,VALID,502.912,VALID,24.601,INVALID,360.0,VALID,0.0,
2019-08-18, 08:59:07,VALID,918.926,VALID,0.0,VALID,73.423,VALID,423.658,VALID,24.746,INVALID,360.0,VALID,0.0,
2019-08-18, 09:00:07,VALID,918.933,VALID,0.0,VALID,72.767,VALID,475.189,VALID,24.747,INVALID,360.0,VALID,0.0,
2019-08-18, 09:01:07,VALID,918.948,VALID,0.0,VALID,74.54,VALID,489.43,VALID,24.74,INVALID,360.0,VALID,0.0,
2019-08-18, 09:02:07,VALID,918.946,VALID,0.0,VALID,71.947,VALID,513.177,VALID,24.813,INVALID,360.0,VALID,0.0,
2019-08-18, 09:03:07,VALID,918.961,VALID,0.0,VALID,72.589,VALID,505.227,VALID,24.674,INVALID,360.0,VALID,0.0,
2019-08-18, 09:04:07,VALID,918.947,VALID,0.0,VALID,74.434,VALID,496.115,VALID,24.644,INVALID,360.0,VALID,0.0,
2019-08-18, 09:05:07,VALID,918.988,VALID,0.0,VALID,73.759,VALID,462.141,VALID,24.58,INVALID,360.0,VALID,0.0,
2019-08-18, 09:06:07,VALID,918.983,VALID,0.0,VALID,74.014,VALID,427.946,VALID,24.549,INVALID,360.0,VALID,0.0,
2019-08-18, 09:07:06,VALID,918.998,VALID,0.0,VALID,73.886,VALID,497.71,VALID,24.533,INVALID,360.0,VALID,0.0,
2019-08-18, 09:08:06,VALID,918.948,VALID,0.0,VALID,73.087,VALID,501.774,VALID,24.457,INVALID,360.0,VALID,0.0,
2019-08-18, 09:09:06,VALID,919.003,VALID,0.0,VALID,74.13,VALID,511.595,VALID,24.488,INVALID,360.0,VALID,0.0,
2019-08-18, 09:10:06,VALID,918.988,VALID,0.0,VALID,73.395,VALID,506.627,VALID,24.67,INVALID,360.0,VALID,0.0,
2019-08-18, 09:11:06,VALID,918.986,VALID,0.0,VALID,73.017,VALID,504.913,VALID,24.634,INVALID,360.0,VALID,0.0,
2019-08-18, 09:12:06,VALID,918.984,VALID,0.0,VALID,72.719,VALID,518.7,VALID,24.596,INVALID,360.0,VALID,0.0,
2019-08-18, 09:13:06,VALID,918.99,VALID,0.0,VALID,74.188,VALID,537.735,VALID,24.681,INVALID,360.0,VALID,0.0,
2019-08-18, 09:14:06,VALID,919.012,VALID,0.0,VALID,73.808,VALID,474.218,VALID,24.794,INVALID,360.0,VALID,0.0,
2019-08-18, 09:15:06,VALID,919.018,VALID,0.0,VALID,72.816,VALID,307.925,VALID,24.721,INVALID,360.0,VALID,0.0,
2019-08-18, 09:16:06,VALID,919.046,VALID,0.0,VALID,74.137,VALID,553.51,VALID,24.555,INVALID,360.0,VALID,0.0,
2019-08-18, 09:17:06,VALID,919.004,VALID,0.0,VALID,72.771,VALID,550.833,VALID,24.435,INVALID,360.0,VALID,0.0,
2019-08-18, 09:18:06,VALID,919.003,VALID,0.0,VALID,73.945,VALID,535.72,VALID,24.384,INVALID,360.0,VALID,0.0,
2019-08-18, 09:19:06,VALID,918.975,VALID,0.0,VALID,74.441,VALID,535.69,VALID,24.557,INVALID,360.0,VALID,0.0,
2019-08-18, 09:20:06,VALID,918.991,VALID,0.0,VALID,73.388,VALID,571.917,VALID,24.816,INVALID,360.0,VALID,0.0,
2019-08-18, 09:21:06,VALID,918.996,VALID,0.0,VALID,74.268,VALID,578.097,VALID,24.836,INVALID,360.0,VALID,0.0,
2019-08-18, 09:22:06,VALID,919.0,VALID,0.0,VALID,72.513,VALID,556.359,VALID,24.968,INVALID,360.0,VALID,0.0,
2019-08-18, 09:23:06,VALID,919.023,VALID,0.0,VALID,72.016,VALID,497.628,VALID,24.915,INVALID,360.0,VALID,0.0,
2019-08-18, 09:24:06,VALID,919.051,VALID,0.0,VALID,73.64,VALID,583.963,VALID,24.924,INVALID,360.0,VALID,0.0,
2019-08-18, 09:25:06,VALID,919.019,VALID,0.0,VALID,71.456,VALID,447.087,VALID,24.779,INVALID,360.0,VALID,0.0,
2019-08-18, 09:26:06,VALID,919.042,VALID,0.0,VALID,74.06,VALID,364.177,VALID,24.817,INVALID,360.0,VALID,0.0,
2019-08-18, 09:27:06,VALID,919.058,VALID,0.0,VALID,72.837,VALID,591.809,VALID,24.814,INVALID,360.0,VALID,0.0,
2019-08-18, 09:28:06,VALID,919.037,VALID,0.0,VALID,73.215,VALID,593.39,VALID,24.878,INVALID,360.0,VALID,0.0,
2019-08-18, 09:29:06,VALID,919.027,VALID,0.0,VALID,72.452,VALID,580.038,VALID,24.983,INVALID,360.0,VALID,0.0,
2019-08-18, 09:30:06,VALID,919.064,VALID,0.0,VALID,72.66,VALID,559.836,VALID,24.929,INVALID,360.0,VALID,0.0,
2019-08-18, 09:31:06,VALID,919.081,VALID,0.0,VALID,72.0,VALID,564.557,VALID,24.871,INVALID,360.0,VALID,0.0,
2019-08-18, 09:32:06,VALID,919.095,VALID,0.0,VALID,72.522,VALID,572.988,VALID,24.947,INVALID,360.0,VALID,0.0,
2019-08-18, 09:33:06,VALID,919.081,VALID,0.0,VALID,72.642,VALID,589.444,VALID,24.98,INVALID,360.0,VALID,0.0,
2019-08-18, 09:34:06,VALID,919.078,VALID,0.0,VALID,72.963,VALID,586.633,VALID,24.973,INVALID,360.0,VALID,0.0,
2019-08-18, 09:35:06,VALID,919.096,VALID,0.0,VALID,73.572,VALID,600.21,VALID,24.995,INVALID,360.0,VALID,0.0,
2019-08-18, 09:36:06,VALID,919.065,VALID,0.0,VALID,72.362,VALID,602.58,VALID,25.07,INVALID,360.0,VALID,0.0,
2019-08-18, 09:37:06,VALID,919.066,VALID,0.0,VALID,73.319,VALID,279.002,VALID,25.17,INVALID,360.0,VALID,0.0,
2019-08-18, 09:38:06,VALID,919.072,VALID,0.0,VALID,72.809,VALID,194.593,VALID,25.112,INVALID,360.0,VALID,0.0,
2019-08-18, 09:39:06,VALID,919.078,VALID,0.0,VALID,73.198,VALID,295.217,VALID,24.885,INVALID,360.0,VALID,0.0,
2019-08-18, 09:40:06,VALID,919.088,VALID,0.0,VALID,72.912,VALID,314.234,VALID,24.602,INVALID,360.0,VALID,0.0,
2019-08-18, 09:41:06,VALID,919.1,VALID,0.0,VALID,74.848,VALID,276.001,VALID,24.463,INVALID,360.0,VALID,0.0,
2019-08-18, 09:42:06,VALID,919.086,VALID,0.0,VALID,73.685,VALID,276.895,VALID,24.361,INVALID,360.0,VALID,0.0,
2019-08-18, 09:43:06,VALID,919.063,VALID,0.0,VALID,74.849,VALID,486.481,VALID,24.294,INVALID,360.0,VALID,0.0,
2019-08-18, 09:44:06,VALID,919.097,VALID,0.0,VALID,76.972,VALID,348.942,VALID,24.494,INVALID,360.0,VALID,0.0,
2019-08-18, 09:45:06,VALID,919.086,VALID,0.0,VALID,74.002,VALID,663.208,VALID,24.693,INVALID,360.0,VALID,0.0,
2019-08-18, 09:46:06,VALID,919.098,VALID,0.0,VALID,73.195,VALID,656.889,VALID,24.85,INVALID,360.0,VALID,0.0,
2019-08-18, 09:47:06,VALID,919.092,VALID,0.0,VALID,74.476,VALID,664.883,VALID,24.881,INVALID,360.0,VALID,0.0,
2019-08-18, 09:48:06,VALID,919.087,VALID,0.0,VALID,74.84,VALID,647.311,VALID,24.997,INVALID,360.0,VALID,0.0,
2019-08-18, 09:49:06,VALID,919.061,VALID,0.0,VALID,75.918,VALID,642.384,VALID,25.332,INVALID,360.0,VALID,0.0,
2019-08-18, 09:50:06,VALID,919.037,VALID,0.0,VALID,71.535,VALID,642.172,VALID,25.625,INVALID,360.0,VALID,0.0,
2019-08-18, 09:51:06,VALID,919.044,VALID,0.0,VALID,72.175,VALID,649.806,VALID,25.765,INVALID,360.0,VALID,0.0,
2019-08-18, 09:52:06,VALID,919.043,VALID,0.0,VALID,71.033,VALID,652.507,VALID,25.764,INVALID,360.0,VALID,0.0,
2019-08-18, 09:53:06,VALID,919.027,VALID,0.0,VALID,70.867,VALID,660.84,VALID,25.423,INVALID,360.0,VALID,0.0,
2019-08-18, 09:54:06,VALID,919.013,VALID,0.0,VALID,71.867,VALID,669.003,VALID,25.217,INVALID,360.0,VALID,0.0,
2019-08-18, 09:55:06,VALID,918.988,VALID,0.0,VALID,72.613,VALID,666.367,VALID,25.254,INVALID,360.0,VALID,0.0,
2019-08-18, 09:56:06,VALID,918.994,VALID,0.0,VALID,74.26,VALID,672.619,VALID,25.515,INVALID,360.0,VALID,0.0,
2019-08-18, 09:57:06,VALID,918.994,VALID,0.0,VALID,73.016,VALID,676.389,VALID,25.884,INVALID,360.0,VALID,0.0,
2019-08-18, 09:58:06,VALID,919.001,VALID,0.0,VALID,71.976,VALID,666.386,VALID,25.801,INVALID,360.0,VALID,0.0,
2019-08-18, 09:59:06,VALID,918.992,VALID,0.0,VALID,71.1,VALID,670.736,VALID,25.698,INVALID,360.0,VALID,0.0,
2019-08-18, 10:00:06,VALID,919.002,VALID,0.0,VALID,70.772,VALID,683.685,VALID,25.493,INVALID,360.0,VALID,0.0,
2019-08-18, 10:01:06,VALID,918.972,VALID,0.0,VALID,72.007,VALID,706.826,VALID,25.291,INVALID,360.0,VALID,0.0,
2019-08-18, 10:02:06,VALID,918.974,VALID,0.0,VALID,72.479,VALID,615.118,VALID,25.347,INVALID,360.0,VALID,0.0,
2019-08-18, 10:03:06,VALID,918.958,VALID,0.0,VALID,70.658,VALID,222.085,VALID,25.282,INVALID,360.0,VALID,0.0,
2019-08-18, 10:04:06,VALID,918.963,VALID,0.0,VALID,71.945,VALID,368.754,VALID,24.999,INVALID,360.0,VALID,0.0,
2019-08-18, 10:05:06,VALID,918.979,VALID,0.0,VALID,73.564,VALID,774.084,VALID,24.839,INVALID,360.0,VALID,0.0,
2019-08-18, 10:06:06,VALID,918.992,VALID,0.0,VALID,73.421,VALID,786.18,VALID,24.937,INVALID,360.0,VALID,0.0,
2019-08-18, 10:07:06,VALID,918.991,VALID,0.0,VALID,73.579,VALID,743.899,VALID,25.104,INVALID,360.0,VALID,0.0,
2019-08-18, 10:08:06,VALID,918.958,VALID,0.0,VALID,72.1,VALID,770.959,VALID,25.217,VALID,90.0,VALID,1.469,
2019-08-18, 10:09:06,VALID,918.953,VALID,0.0,VALID,72.986,VALID,713.925,VALID,25.293,VALID,76.0,VALID,2.943,
2019-08-18, 10:10:06,VALID,918.956,VALID,0.0,VALID,72.54,VALID,590.809,VALID,25.318,VALID,84.0,VALID,2.825,
2019-08-18, 10:11:06,VALID,918.951,VALID,0.0,VALID,72.023,VALID,491.357,VALID,25.213,VALID,84.0,VALID,2.75,
2019-08-18, 10:12:06,VALID,918.95,VALID,0.0,VALID,72.568,VALID,391.705,VALID,25.179,VALID,55.0,VALID,3.092,
2019-08-18, 10:13:06,VALID,918.949,VALID,0.0,VALID,73.041,VALID,540.581,VALID,25.182,VALID,101.0,VALID,2.245,
2019-08-18, 10:14:06,VALID,918.944,VALID,0.0,VALID,71.791,VALID,432.084,VALID,25.141,VALID,91.0,VALID,3.102,
2019-08-18, 10:15:06,VALID,918.917,VALID,0.0,VALID,72.473,VALID,525.622,VALID,25.006,VALID,45.0,VALID,2.352,
2019-08-18, 10:16:06,VALID,918.912,VALID,0.0,VALID,73.028,VALID,682.524,VALID,24.968,VALID,47.0,VALID,1.184,
2019-08-18, 10:17:06,VALID,918.913,VALID,0.0,VALID,73.51,VALID,343.176,VALID,25.132,VALID,88.0,VALID,1.138,
2019-08-18, 10:18:06,VALID,918.903,VALID,0.0,VALID,72.768,VALID,749.112,VALID,25.48,VALID,80.0,VALID,1.02,
2019-08-18, 10:19:06,VALID,918.868,VALID,0.0,VALID,70.888,VALID,764.18,VALID,25.68,VALID,50.0,VALID,1.842,
2019-08-18, 10:20:06,VALID,918.851,VALID,0.0,VALID,72.669,VALID,765.746,VALID,25.716,VALID,68.0,VALID,2.765,
2019-08-18, 10:21:06,VALID,918.845,VALID,0.0,VALID,71.824,VALID,762.446,VALID,25.829,VALID,44.0,VALID,2.005,
2019-08-18, 10:22:06,VALID,918.83,VALID,0.0,VALID,71.585,VALID,768.602,VALID,26.016,VALID,47.0,VALID,1.131,
2019-08-18, 10:23:06,VALID,918.816,VALID,0.0,VALID,69.619,VALID,721.906,VALID,26.164,INVALID,360.0,VALID,0.0,
2019-08-18, 10:24:06,VALID,918.836,VALID,0.0,VALID,68.755,VALID,450.857,VALID,26.121,INVALID,360.0,VALID,0.0,
2019-08-18, 10:25:06,VALID,918.817,VALID,0.0,VALID,69.846,VALID,334.5,VALID,26.109,INVALID,360.0,VALID,0.0,
2019-08-18, 10:26:06,VALID,918.807,VALID,0.0,VALID,69.82,VALID,631.534,VALID,25.919,INVALID,360.0,VALID,0.0,
2019-08-18, 10:27:06,VALID,918.79,VALID,0.0,VALID,69.999,VALID,770.709,VALID,25.568,INVALID,360.0,VALID,0.0,
2019-08-18, 10:28:06,VALID,918.759,VALID,0.0,VALID,71.167,VALID,754.915,VALID,25.59,INVALID,360.0,VALID,0.0,
2019-08-18, 10:29:06,VALID,918.753,VALID,0.0,VALID,70.438,VALID,754.787,VALID,25.995,INVALID,360.0,VALID,0.0,
2019-08-18, 10:30:06,VALID,918.772,VALID,0.0,VALID,70.435,VALID,267.536,VALID,26.249,INVALID,360.0,VALID,0.0,
2019-08-18, 10:31:06,VALID,918.772,VALID,0.0,VALID,71.132,VALID,639.364,VALID,25.991,INVALID,360.0,VALID,0.0,
2019-08-18, 10:32:06,VALID,918.77,VALID,0.0,VALID,72.019,VALID,572.024,VALID,26.043,INVALID,360.0,VALID,0.0,
2019-08-18, 10:33:06,VALID,918.753,VALID,0.0,VALID,70.873,VALID,742.363,VALID,26.236,INVALID,360.0,VALID,0.0,
2019-08-18, 10:34:06,VALID,918.746,VALID,0.0,VALID,71.239,VALID,708.224,VALID,26.373,INVALID,360.0,VALID,0.0,
2019-08-18, 10:35:06,VALID,918.707,VALID,0.0,VALID,70.014,VALID,746.168,VALID,26.612,INVALID,360.0,VALID,0.0,